EHI
16 15 15 12 10 11 12 12 9 5 4 6 10 14 16 12 9 10 10 8 3 0 0 0 0 0 0 0 0 0 0 0 0 0 0 0 0 0
17 17 18 16 13 13 16 16 13 9 6 6 9 12 13 10 8 9 9 9 5 2 0 0 0 0 0 0 0 0 0 0 0 0 0 0 0 0
20 20 20 20 19 18 19 18 17 13 9 8 10 12 13 11 10 10 8 9 8 4 0 0 0 0 0 0 0 0 0 0 0 0 0 1 0 0
22 21 20 19 21 21 18 16 15 12 10 9 11 13 14 13 13 11 7 6 7 4 1 0 0 0 0 0 0 0 0 0 0 0 0 0 0 0
22 21 20 19 19 19 17 15 12 10 9 10 11 13 13 13 13 11 8 6 5 4 1 0 0 0 0 0 0 0 0 0 0 0 0 0 0 0
20 21 21 19 18 17 16 15 14 12 11 10 11 11 12 13 13 11 10 8 6 4 2 1 1 0 0 0 0 0 0 0 0 0 0 0 0 0
19 20 19 18 16 14 13 12 13 13 11 9 9 10 12 14 14 13 11 9 7 4 3 3 2 1 0 0 0 0 0 0 0 0 0 0 0 0
16 16 15 12 11 10 7 6 7 8 8 7 8 9 11 13 15 14 11 7 5 4 3 3 2 1 0 0 0 0 0 0 0 0 0 0 0 0
13 11 10 9 10 9 7 4 4 4 4 5 7 8 9 11 14 14 11 7 6 6 3 2 1 1 0 0 0 0 0 0 0 0 0 0 0 0
10 8 8 10 11 11 11 10 9 6 2 2 4 5 5 7 10 12 10 8 7 6 3 1 0 0 0 0 0 0 0 0 0 0 0 0 0 0
10 8 7 9 9 8 10 12 13 10 4 1 1 2 2 2 4 7 8 6 6 5 3 1 0 0 0 0 0 0 0 0 0 0 0 0 0 0
11 8 5 4 3 3 6 9 11 10 6 2 1 1 2 2 2 4 4 3 4 5 3 1 1 1 1 0 0 0 0 0 0 0 0 0 0 0
11 9 5 1 0 0 2 5 6 6 5 3 3 4 6 6 5 4 3 2 4 5 4 2 2 2 2 1 0 1 1 0 0 0 0 0 0 0
9 7 4 1 0 0 0 1 1 2 2 3 4 6 7 8 8 7 4 4 5 4 3 2 2 3 3 2 1 1 1 1 0 0 0 0 0 0
5 3 1 0 0 0 0 0 0 0 1 2 3 5 7 8 8 8 6 5 5 3 2 3 2 2 3 3 1 1 1 1 1 0 0 0 0 0
2 1 0 0 0 0 0 0 0 0 1 1 2 5 8 8 8 7 6 5 3 1 1 2 2 2 2 2 1 0 0 1 1 0 0 0 0 0
0 0 0 0 0 0 0 0 0 1 1 2 4 6 8 8 7 6 4 3 2 0 0 1 2 2 1 1 1 0 0 0 1 1 0 0 0 0
1 1 1 1 0 0 0 1 1 3 4 5 6 6 7 7 7 5 4 3 2 1 0 1 1 1 0 0 0 0 0 0 1 1 0 0 0 0
1 3 3 2 1 1 1 1 2 3 4 5 6 6 6 5 5 5 4 3 2 1 0 1 1 0 0 0 0 0 0 1 1 1 0 0 0 0
1 2 3 2 2 3 3 2 2 2 3 3 3 4 5 4 4 5 5 3 1 0 1 1 1 0 0 0 0 0 0 1 2 1 0 0 0 0
0 1 1 1 2 4 4 3 2 2 2 1 1 2 3 3 3 4 5 3 1 0 1 1 1 0 1 0 0 0 0 1 2 1 0 0 0 0
1 0 0 0 2 3 3 2 2 2 2 1 0 1 1 2 3 3 3 2 1 0 0 0 0 0 0 0 0 0 0 0 1 1 0 0 0 0
1 1 0 0 1 1 1 1 1 1 1 0 0 0 1 2 2 2 1 1 1 0 0 0 0 0 0 0 0 0 0 0 0 0 0 0 0 0
Wind_Speed
3 3 2 2 2 2 1 1 2 3 3 2 1 1 1 1 4 3 2 6 8 9 9 8 8 7 7 7 6 5 6 6 6 7 8 9 9 10
3 2 2 2 2 2 2 2 2 2 3 1 1 1 1 2 4 3 2 5 8 9 10 9 9 8 7 7 7 6 6 6 6 7 7 8 8 9
3 2 2 2 2 3 2 2 2 2 3 3 1 1 2 2 2 2 3 4 4 9 10 10 10 9 8 8 7 7 6 6 6 7 8 9 8 8
3 2 3 2 2 2 3 3 2 2 2 3 3 2 3 3 3 3 4 4 3 6 9 10 10 10 9 8 8 7 7 6 6 7 8 8 9 8
2 2 3 2 3 3 3 3 2 3 2 3 3 2 2 2 2 3 4 3 4 4 7 8 9 10 10 9 8 7 7 6 6 7 7 8 8 8
3 3 3 3 3 4 3 2 2 3 3 3 3 2 2 2 1 2 3 2 3 4 3 5 7 9 10 9 9 9 8 7 7 7 7 7 7 7
3 3 3 3 3 3 3 2 2 2 3 3 3 2 2 2 2 2 3 2 3 3 2 3 3 4 5 7 8 9 9 8 8 7 7 7 7 6
3 3 4 3 2 2 3 3 3 3 3 3 3 3 3 2 2 3 3 3 3 2 2 4 3 3 4 4 7 10 10 9 8 8 7 7 7 7
3 3 4 3 2 2 3 4 4 6 6 4 4 4 4 3 3 4 3 4 5 4 3 4 2 2 3 3 7 10 10 10 9 8 8 8 8 7
3 3 3 2 3 3 4 3 3 4 5 5 4 5 5 3 4 4 5 5 5 4 3 3 3 3 3 2 6 10 10 10 9 9 9 8 8 8
2 3 3 2 3 4 3 3 3 3 5 6 6 7 7 8 6 4 4 4 5 4 3 3 3 2 2 3 4 9 9 9 9 9 9 8 8 7
2 2 2 2 2 3 3 4 5 4 4 4 5 6 6 7 8 5 4 4 4 3 2 2 2 1 2 2 1 3 4 6 8 9 9 8 6 5
2 2 1 2 3 4 4 4 6 6 5 5 5 4 4 4 4 4 4 4 4 4 2 2 2 2 2 2 1 2 3 3 4 4 6 7 7 6
3 3 2 3 5 6 6 7 8 6 5 4 4 3 3 3 3 3 4 4 4 4 4 2 2 2 2 3 2 1 2 2 3 3 3 5 5 7
4 4 5 6 6 5 7 8 6 4 4 4 4 4 2 2 2 2 2 3 4 5 4 3 3 2 2 3 3 2 2 1 2 2 2 3 3 3
4 5 6 7 6 6 5 5 4 4 3 4 3 3 2 2 2 2 2 2 3 4 3 3 3 3 3 3 3 3 2 2 2 2 2 2 3 3
4 4 4 3 3 3 3 3 3 3 3 4 4 3 3 2 2 2 2 2 3 3 3 2 2 2 2 3 3 3 2 2 2 2 2 2 2 2
3 4 4 3 3 3 3 3 3 3 3 3 3 3 3 3 3 2 2 3 3 3 3 2 1 1 2 2 3 3 2 2 2 2 2 2 2 2
3 4 3 3 3 3 3 3 3 3 3 3 3 3 3 3 3 3 2 3 3 3 2 2 2 2 3 3 2 3 2 2 2 2 2 2 2 2
3 3 4 3 3 4 3 3 3 3 3 3 3 3 3 3 3 3 2 3 3 2 2 2 2 3 3 3 2 2 2 2 2 2 2 1 1 2
3 3 3 3 3 3 3 3 3 3 3 3 3 3 2 2 3 3 2 3 3 3 3 3 2 2 1 1 1 1 0 0 1 2 2 2 1 2
3 3 3 3 3 3 3 3 3 3 3 3 3 2 2 3 3 3 3 3 3 3 3 2 2 1 1 2 2 1 1 1 2 5 4 2 2 2
3 3 3 3 3 3 3 4 5 3 3 3 3 3 3 3 2 2 3 3 3 2 2 1 1 1 1 1 1 1 2 2 2 2 2 2 2 3
Wind_Direction
284 276 278 279 282 276 265 246 253 271 270 263 260 200 178 188 180 199 199 203 207 209 214 220 226 233 238 241 242 243 245 247 245 236 228 223 221 221
255 271 286 287 290 286 277 263 241 249 270 274 263 261 261 255 198 213 226 221 218 214 217 220 222 226 230 233 234 235 238 240 240 235 228 225 222 223
276 270 272 285 291 293 296 285 268 256 267 285 288 278 251 259 231 228 240 229 223 222 217 218 220 220 222 226 230 232 233 235 237 232 225 221 219 220
276 279 274 277 271 280 285 281 275 274 268 279 270 260 255 240 230 237 256 257 239 224 214 216 218 218 218 220 224 226 227 229 234 231 224 218 217 219
284 280 277 280 273 273 267 267 270 272 251 259 267 259 264 263 246 254 264 272 270 241 210 214 220 217 217 216 217 219 219 221 226 224 222 218 215 216
287 280 267 261 262 271 266 265 276 282 278 271 270 270 265 268 257 255 266 265 274 274 242 214 218 213 214 211 213 212 211 213 219 220 218 216 216 215
299 287 273 262 266 271 275 277 275 270 275 272 269 276 278 302 298 283 281 271 264 265 269 248 216 209 209 217 215 214 212 210 213 215 214 211 211 210
290 291 274 260 262 260 277 277 273 269 280 285 281 281 281 286 292 288 290 292 281 261 258 264 234 216 210 205 205 208 210 210 212 214 213 210 209 211
279 282 291 295 275 249 257 257 254 254 252 261 272 279 281 286 286 285 284 278 272 274 272 271 263 249 232 216 204 201 205 208 210 211 212 213 211 212
276 279 284 284 294 289 269 261 253 258 256 250 250 261 270 276 269 270 269 272 267 264 248 254 256 253 255 219 204 196 200 204 206 209 210 211 212 214
289 291 283 270 287 295 285 279 271 265 268 266 255 251 252 255 256 266 268 269 274 267 256 254 262 262 253 238 210 201 199 200 204 209 212 212 214 211
274 264 271 271 287 297 275 278 276 279 284 277 265 257 250 249 245 236 248 262 275 275 262 259 269 284 281 256 226 188 196 207 213 217 211 208 204 199
281 275 264 244 262 268 263 264 268 283 288 275 263 254 248 240 227 226 229 240 257 265 271 275 283 280 259 276 259 212 194 195 199 213 210 203 196 191
289 287 292 294 283 270 259 260 270 279 275 274 273 265 257 253 245 238 230 232 241 255 264 261 269 267 271 272 272 254 218 197 188 189 183 185 199 208
286 296 291 281 284 272 251 252 260 262 266 271 274 271 258 256 258 256 248 243 257 262 259 238 239 258 260 265 267 261 262 230 191 176 173 177 193 197
300 302 285 269 266 267 268 249 242 250 257 266 274 274 264 250 246 239 242 244 255 261 258 243 228 234 253 261 257 259 251 234 201 177 178 196 200 196
297 284 275 273 266 261 257 254 244 243 251 257 266 271 262 258 258 257 248 256 255 257 257 255 241 226 237 266 264 248 236 234 203 179 172 199 218 197
277 276 281 284 287 287 283 271 256 256 254 251 257 258 248 247 253 257 246 243 256 258 254 246 235 254 258 274 238 238 239 234 208 186 186 191 214 188
260 276 287 291 294 291 290 291 285 280 278 270 265 263 259 252 250 250 243 242 245 251 249 237 221 219 239 262 270 228 226 226 205 205 200 194 205 188
266 280 287 289 292 295 296 294 293 289 282 280 280 276 272 262 257 253 246 248 248 253 251 240 228 222 227 234 259 283 246 212 201 195 198 163 108 118
297 297 297 301 298 298 301 295 293 290 288 290 292 291 286 278 268 257 240 233 234 240 240 239 236 226 218 202 212 237 330 62 136 160 171 160 171 176
291 294 299 302 302 302 303 299 297 298 300 297 294 291 287 280 273 269 258 243 230 227 234 227 212 210 203 198 204 211 173 124 86 74 60 79 168 187
298 303 302 304 307 312 319 315 308 304 301 295 291 291 288 286 281 265 256 252 245 226 216 207 208 211 209 176 179 169 136 140 139 111 55 28 121 142